• In Czech Republic
  • List of Countries
  • For 7 days
  • Water Temperature
  • Satellite Maps
  • Weather Map
  • Weather Widgets
  • user-avatar
    Login

    Hourly Weather Savona

    Today, 23 November, Thursday

    Time Temperature Precipitation Wind Pressure Humidity
    00:00 +12°C° 0 mm 1 mps 763 mmHg 94%
    01:00 +12°C° 0 mm 1 mps 763 mmHg 94%
    02:00 +12°C° 0.1 mm 1 mps 763 mmHg 94%
    03:00 +12°C° 0.1 mm 1 mps 762 mmHg 93%
    04:00 +12°C° 0.1 mm 1 mps 762 mmHg 93%
    05:00 +12°C° 0.1 mm 1 mps 762 mmHg 92%
    06:00 +12°C° 0.1 mm 1 mps 762 mmHg 91%
    07:00 +12°C° 0.1 mm 1 mps 763 mmHg 91%
    08:00 +12°C° 0.1 mm 1 mps 763 mmHg 87%
    09:00 +13°C° 0.1 mm 1 mps 763 mmHg 84%
    10:00 +14°C° 0.1 mm 1 mps 763 mmHg 80%
    11:00 +15°C° 0.1 mm 2 mps 763 mmHg 78%
    12:00 +15°C° 0.1 mm 2 mps 762 mmHg 75%
    13:00 +16°C° 0.1 mm 2 mps 762 mmHg 73%
    14:00 +15°C° 0 mm 2 mps 762 mmHg 76%
    15:00 +15°C° 0 mm 2 mps 762 mmHg 79%
    16:00 +15°C° 0 mm 1 mps 762 mmHg 82%
    17:00 +14°C° 0 mm 1 mps 763 mmHg 86%
    18:00 +13°C° 0 mm 1 mps 763 mmHg 90%
    19:00 +12°C° 0 mm 1 mps 763 mmHg 93%
    20:00 +12°C° 0 mm 1 mps 764 mmHg 93%
    21:00 +12°C° 0 mm 1 mps 764 mmHg 93%
    22:00 +11°C° 0 mm 1 mps 764 mmHg 93%
    23:00 +11°C° 0 mm 1 mps 764 mmHg 93%

    Tomorrow, 24 November, Friday

    Time Temperature Precipitation Wind Pressure Humidity
    00:00 +11°C° 0 mm 1 mps 764 mmHg 93%
    01:00 +11°C° 0 mm 1 mps 764 mmHg 93%
    02:00 +11°C° 0 mm 1 mps 764 mmHg 93%
    03:00 +11°C° 0 mm 1 mps 764 mmHg 93%
    04:00 +11°C° 0 mm 1 mps 764 mmHg 92%
    05:00 +11°C° 0 mm 1 mps 764 mmHg 93%
    06:00 +11°C° 0 mm 1 mps 764 mmHg 93%
    07:00 +11°C° 0 mm 1 mps 764 mmHg 93%
    08:00 +12°C° 0 mm 1 mps 765 mmHg 90%
    09:00 +13°C° 0 mm 1 mps 765 mmHg 87%
    10:00 +14°C° 0 mm 1 mps 765 mmHg 83%
    11:00 +14°C° 0.1 mm 1 mps 765 mmHg 83%
    12:00 +14°C° 0.1 mm 1 mps 764 mmHg 82%
    13:00 +15°C° 0.1 mm 2 mps 764 mmHg 81%
    14:00 +14°C° 0.1 mm 2 mps 764 mmHg 84%
    15:00 +14°C° 0.1 mm 2 mps 763 mmHg 86%
    16:00 +14°C° 0.1 mm 2 mps 763 mmHg 89%
    17:00 +14°C° 0.1 mm 2 mps 763 mmHg 91%
    18:00 +13°C° 0.1 mm 2 mps 763 mmHg 92%
    19:00 +13°C° 0.1 mm 2 mps 764 mmHg 94%
    20:00 +13°C° 0.3 mm 2 mps 764 mmHg 94%
    21:00 +13°C° 0.3 mm 2 mps 764 mmHg 94%
    22:00 +13°C° 0.3 mm 2 mps 764 mmHg 94%
    23:00 +13°C° 0.2 mm 2 mps 763 mmHg 94%

    Day after tomorrow, 25 November, Saturday

    Time Temperature Precipitation Wind Pressure Humidity
    00:00 +13°C° 0.2 mm 2 mps 763 mmHg 94%
    01:00 +13°C° 0.2 mm 2 mps 763 mmHg 94%
    02:00 +13°C° 0.2 mm 2 mps 763 mmHg 94%
    03:00 +13°C° 0.2 mm 2 mps 762 mmHg 94%
    04:00 +13°C° 0.2 mm 2 mps 762 mmHg 94%
    05:00 +13°C° 0.3 mm 2 mps 761 mmHg 95%
    06:00 +13°C° 0.3 mm 2 mps 761 mmHg 95%
    07:00 +12°C° 0.3 mm 3 mps 760 mmHg 96%
    08:00 +12°C° 0.3 mm 3 mps 760 mmHg 94%
    09:00 +13°C° 0.3 mm 4 mps 760 mmHg 92%
    10:00 +13°C° 0.3 mm 4 mps 759 mmHg 90%
    11:00 +14°C° 0.2 mm 5 mps 759 mmHg 88%
    12:00 +14°C° 0.2 mm 5 mps 758 mmHg 86%
    13:00 +15°C° 0.2 mm 6 mps 757 mmHg 85%
    14:00 +14°C° 0.1 mm 5 mps 757 mmHg 86%
    15:00 +14°C° 0.1 mm 4 mps 756 mmHg 88%
    16:00 +14°C° 0.1 mm 4 mps 756 mmHg 89%
    17:00 +13°C° 0 mm 3 mps 756 mmHg 91%
    18:00 +14°C° 0 mm 2 mps 756 mmHg 92%
    19:00 +13°C° 0 mm 2 mps 756 mmHg 94%
    20:00 +12°C° 0 mm 2 mps 756 mmHg 93%
    21:00 +12°C° 0 mm 2 mps 757 mmHg 92%
    22:00 +12°C° 0 mm 2 mps 757 mmHg 92%
    23:00 +12°C° 0 mm 2 mps 757 mmHg 91%

    26 November, Sunday

    Time Temperature Precipitation Wind Pressure Humidity
    00:00 +10°C° 0 mm 2 mps 757 mmHg 91%
    01:00 +10°C° 0 mm 2 mps 757 mmHg 90%
    02:00 +10°C° 0 mm 2 mps 757 mmHg 88%
    03:00 +9°C° 0 mm 3 mps 757 mmHg 86%
    04:00 +9°C° 0 mm 3 mps 757 mmHg 84%
    05:00 +8°C° 0 mm 3 mps 757 mmHg 81%
    06:00 +8°C° 0 mm 3 mps 758 mmHg 78%
    07:00 +7°C° 0 mm 3 mps 758 mmHg 74%
    08:00 +7°C° 0 mm 4 mps 758 mmHg 68%
    09:00 +8°C° 0 mm 4 mps 759 mmHg 61%
    10:00 +9°C° 0 mm 5 mps 759 mmHg 54%
    11:00 +9°C° 0 mm 5 mps 759 mmHg 47%
    12:00 +10°C° 0 mm 6 mps 759 mmHg 40%
    13:00 +10°C° 0 mm 7 mps 760 mmHg 33%
    14:00 +10°C° 0 mm 6 mps 760 mmHg 33%
    15:00 +9°C° 0 mm 6 mps 761 mmHg 33%
    16:00 +9°C° 0 mm 6 mps 762 mmHg 34%
    17:00 +8°C° 0 mm 5 mps 763 mmHg 36%
    18:00 +7°C° 0 mm 5 mps 764 mmHg 38%
    19:00 +5°C° 0 mm 4 mps 765 mmHg 40%
    20:00 +5°C° 0 mm 4 mps 765 mmHg 42%
    21:00 +4°C° 0 mm 3 mps 766 mmHg 43%
    22:00 +4°C° 0 mm 3 mps 766 mmHg 45%
    23:00 +4°C° 0 mm 3 mps 766 mmHg 47%

    27 November, Monday

    Time Temperature Precipitation Wind Pressure Humidity
    00:00 +3°C° 0 mm 3 mps 766 mmHg 49%
    01:00 +4°C° 0 mm 2 mps 766 mmHg 50%
    02:00 +4°C° 0 mm 2 mps 766 mmHg 52%
    03:00 +4°C° 0 mm 2 mps 766 mmHg 53%
    04:00 +3°C° 0 mm 2 mps 766 mmHg 55%
    05:00 +3°C° 0 mm 2 mps 766 mmHg 56%
    06:00 +3°C° 0 mm 2 mps 766 mmHg 57%
    07:00 +3°C° 0 mm 2 mps 766 mmHg 59%
    08:00 +4°C° 0 mm 2 mps 767 mmHg 55%
    09:00 +6°C° 0 mm 2 mps 767 mmHg 52%
    10:00 +8°C° 0 mm 1 mps 767 mmHg 48%
    11:00 +8°C° 0 mm 2 mps 766 mmHg 47%
    12:00 +9°C° 0 mm 2 mps 766 mmHg 45%
    13:00 +10°C° 0 mm 2 mps 766 mmHg 43%
    14:00 +10°C° 0 mm 1 mps 765 mmHg 47%
    15:00 +9°C° 0 mm 1 mps 765 mmHg 52%
    16:00 +9°C° 0 mm 1 mps 765 mmHg 56%
    17:00 +8°C° 0 mm 1 mps 765 mmHg 60%
    18:00 +7°C° 0 mm 1 mps 766 mmHg 64%
    19:00 +6°C° 0 mm 1 mps 766 mmHg 68%
    20:00 +5°C° 0 mm 1 mps 766 mmHg 68%
    21:00 +5°C° 0 mm 1 mps 766 mmHg 69%
    22:00 +5°C° 0 mm 1 mps 766 mmHg 69%
    23:00 +5°C° 0 mm 1 mps 766 mmHg 69%

    28 November, Tuesday

    Time Temperature Precipitation Wind Pressure Humidity
    00:00 +5°C° 0 mm 1 mps 765 mmHg 68%
    01:00 +5°C° 0 mm 1 mps 765 mmHg 68%
    02:00 +5°C° 0 mm 1 mps 765 mmHg 69%
    03:00 +5°C° 0 mm 1 mps 765 mmHg 70%
    04:00 +5°C° 0 mm 1 mps 764 mmHg 71%
    05:00 +5°C° 0 mm 1 mps 764 mmHg 73%
    06:00 +5°C° 0 mm 1 mps 764 mmHg 76%
    07:00 +5°C° 0 mm 1 mps 764 mmHg 78%
    08:00 +6°C° 0.1 mm 1 mps 763 mmHg 77%
    09:00 +6°C° 0.1 mm 2 mps 763 mmHg 77%
    10:00 +7°C° 0.1 mm 2 mps 763 mmHg 76%
    11:00 +7°C° 0.1 mm 2 mps 763 mmHg 75%
    12:00 +8°C° 0.1 mm 2 mps 762 mmHg 75%
    13:00 +8°C° 0.1 mm 3 mps 761 mmHg 74%
    14:00 +8°C° 0.1 mm 3 mps 761 mmHg 76%
    15:00 +8°C° 0.1 mm 2 mps 761 mmHg 79%
    16:00 +8°C° 0.1 mm 2 mps 760 mmHg 81%
    17:00 +7°C° 0.1 mm 2 mps 760 mmHg 83%
    18:00 +7°C° 0.1 mm 2 mps 760 mmHg 85%
    19:00 +6°C° 0.1 mm 2 mps 760 mmHg 87%
    20:00 +6°C° 0.1 mm 2 mps 760 mmHg 88%
    21:00 +7°C° 0.1 mm 1 mps 759 mmHg 88%
    22:00 +7°C° 0.1 mm 1 mps 759 mmHg 88%
    23:00 +6°C° 0.5 mm 2 mps 759 mmHg 88%
    Show more